Location: Guayaquil
(2.1667°S, 79.9000°W)
Time: 09:48:52
(UTC-05:00)

Hubble Space Telescope - Visible Passes

Search period start: 25 July 2017 00:00
Search period end: 04 August 2017 00:00
Orbit: 538 x 542 km, 28.5° (Epoch: 25 July)

Date Brightness Start Highest point End Pass type
(mag) Time Alt. Az. Time Alt. Az. Time Alt. Az.
29 Jul 3.2 19:36:24 10° NNE 19:37:03 10° NNE 19:37:43 10° NE visible
30 Jul 2.9 19:24:43 10° N 19:27:01 14° NNE 19:28:33 12° NE visible
31 Jul 2.6 19:13:55 10° NNW 19:16:59 20° NNE 19:19:10 14° ENE visible
31 Jul 3.9 20:54:03 10° WNW 20:54:32 13° WNW 20:54:32 13° WNW visible
01 Aug 2.1 19:03:21 10° NNW 19:06:54 27° NNE 19:09:49 13° E visible
01 Aug 3.5 20:44:07 10° WNW 20:45:11 17° W 20:45:11 17° W visible
02 Aug 3.3 05:18:43 10° S 05:19:54 11° SSE 05:21:04 10° SE visible
02 Aug 1.6 18:52:57 10° NW 18:56:50 39° NNE 19:00:29 11° E visible
02 Aug 3.2 20:34:19 10° W 20:35:52 19° WSW 20:35:52 19° WSW visible
03 Aug 3.1 05:08:12 12° S 05:09:53 15° SSE 05:12:17 10° ESE visible
03 Aug 1.1 18:42:40 10° NW 18:46:44 57° NNE 18:50:49 10° ESE visible
03 Aug 3.1 20:24:40 10° W 20:26:34 19° WSW 20:26:34 19° WSW visible
